Other Public Products
Issued by NWS Grand Forks, ND

Home | Current Version | Previous Version | Graphics & Text | Print | Product List | Glossary On
Versions: 1 2 3 4 5 6 7 8 9 10 11 12 13 14 15 16 17 18 19 20 21 22 23 24 25 26 27 28 29 30 31 32 33 34 35 36 37 38 39 40 41 42 43 44 45 46 47 48 49 50
000
FPUS83 KFGF 151431
OPUFGF
PRAIRIE TO PINES WEATHER ROUNDUP
NATIONAL WEATHER SERVICE EASTERN NORTH DAKOTA/GRAND FORKS ND
900 AM CDT TUE APR 15 2014

 **SATELLITE DATA USED TO AUGMENT SKY COVER AT AUTOMATED STATIONS**
 *****  WEATHER ACROSS EASTERN NORTH DAKOTA  *****

CITY           SKY/WX    TMP DP  RH WIND       PRES   REMARKS
GRAND FORKS    MOSUNNY   19   5  54 S5        30.12S WCI  12
GRAND FORKS AF MOSUNNY   19   8  61 S7        30.15F WCI  10
GRAND CITY NWS   N/A     21 N/A N/A SE5         N/A  WCI  15
BUXTON           N/A     20  11  68 S2          N/A
DEVILS LAKE    MOSUNNY   19   9  63 SE10      30.06F WCI   8
FARGO          SUNNY     19   5  54 S3        30.17F
WAHPETON ARPT  SUNNY     21   9  58 CALM      30.18F
$$

 *****  WEATHER ACROSS CENTRAL AND WESTERN NORTH DAKOTA  *****

CITY           SKY/WX    TMP DP  RH WIND       PRES   REMARKS
JAMESTOWN      PTSUNNY   21  11  65 S14       30.07F WCI   8
BISMARCK       CLOUDY    24  15  68 S16       29.98F WCI  11
MINOT          MOSUNNY   25   9  50 SE15G24   29.92F WCI  13
MINOT AFB      PTSUNNY   24  10  55 SE16G26   29.92F WCI  11
GARRISON         N/A     23  12  62 SE16      29.90F WCI  10
WILLISTON      CLOUDY    26  12  55 SE13      29.79F WCI  15
DICKINSON      CLOUDY    25  13  60 SE21G28   29.77F WCI  11
HETTINGER      CLOUDY    25  14  63 SE15      29.81F WCI  13
$$

 *****  OTHER OBSERVATIONS NORTHEAST NORTH DAKOTA  *****

CITY           SKY/WX    TMP DP  RH WIND       PRES   REMARKS
WALHALLA         N/A     19   5  53 S10       30.13F WCI   8
LANGDON        FAIR      19   9  63 S13       30.05F WCI   7
CAVALIER       FAIR      19   9  63 S9        30.14F WCI   9
GRAFTON        FAIR      19   3  49 SE5       30.15F WCI  13
CANDO          FAIR      21  12  68 S12       30.05F WCI   9
FORT TOTTEN      N/A     19  12  73 S9        29.95  WCI   8
ROLLA          FAIR      19   9  63 S16       30.01F WCI   5
RUGBY          FAIR      21  12  68 SE15      29.99F WCI   8
 ***** THE ABOVE OBSERVATIONS ARE NON NWS ARE NOT QUALITY
        CONTROLLED AND MAY MIS-REPORT RAIN FOR SNOW...
$$

 *****  OTHER OBSERVATIONS SOUTHEAST NORTH DAKOTA *****

CITY           SKY/WX    TMP DP  RH WIND       PRES   REMARKS
COOPERSTOWN    FAIR      19  12  73 S12       30.09F WCI   7
VALLEY CITY    NOT AVBL
OAKES          FAIR      21  16  79 SE14      30.11F WCI   8
GWINNER        PTSUNNY   23   9  54 SE10      30.14F WCI  12
BUFFALO          N/A     19   4  52 SE6         N/A  WCI  11
WYNDMERE       NOT AVBL
 ***** THE ABOVE OBSERVATIONS ARE NON NWS ARE NOT QUALITY
       CONTROLLED AND MAY MIS-REPORT RAIN FOR SNOW...
$$

  *****  WEATHER ACROSS NORTHERN MINNESOTA  *****

CITY           SKY/WX    TMP DP  RH WIND       PRES   REMARKS
FLAG ISLAND    SUNNY      7  -2  66 CALM      30.13F
WARROAD        SUNNY     12   1  62 CALM      30.15S
ROSEAU         SUNNY     14   1  57 N3        30.15F
HALLOCK          N/A     18   1  49 SE6       30.16R WCI   9
THF RVR FALLS  SUNNY     18   1  49 CALM      30.15S
HALSTAD          N/A     20   5  52 S3          N/A
FOSSTON        SUNNY     18   3  53 N6        30.13F WCI   9
BAUDETTE       SUNNY     11   0  61 VRB3      30.13F
WASKISH        SUNNY     12   1  62 W6        30.13S WCI   3
CROOKSTON      SUNNY     18   5  57 SE5       30.18R WCI  11
$$
  *****  WEATHER ACROSS CENTRAL AND WEST MINNESOTA  *****

CITY           SKY/WX    TMP DP  RH WIND       PRES   REMARKS
BEMIDJI        SUNNY     14   1  55 NW7       30.12S WCI   4
PARK RAPIDS    SUNNY     16   3  56 N6        30.11F WCI   7
WADENA         SUNNY     16   7  67 NW3       30.14R
DETROIT LAKES  SUNNY     18   9  68 CALM      30.14S
MOORHEAD       SUNNY     19   5  53 W2        30.18F
FERGUS FALLS   SUNNY     18   3  53 W3        30.16S
ELBOW LAKE     FAIR      18   3  51 W7        30.17S WCI   9
MORRIS MN      SUNNY     19   3  49 NW5       30.17F WCI  13
STAPLES        SUNNY     16   0  48 W3        30.14S
WHEATON        SUNNY     23  10  58 CALM      30.20F
$$
  *****  WEATHER ELSEWHERE ACROSS MINNESOTA  *****

CITY           SKY/WX    TMP DP  RH WIND       PRES   REMARKS
DULUTH         SUNNY     17   3  54 VRB6      30.08R WCI   9
INTRNTL FALLS  SUNNY     12   0  58 CALM      30.11F
ELY            SUNNY     16   1  53 N6        30.06S WCI   7
CLOQUET        SUNNY     18   3  53 NW7       30.09F WCI   8
BRAINERD       SUNNY     19  -2  39 N7        30.14S WCI  10
HIBBING        SUNNY     15   3  59 N7        30.09S WCI   5
ALEXANDRIA     SUNNY     16   7  67 W3        30.16R
SAINT CLOUD    SUNNY     20   6  55 NW6       30.16R WCI  12
MINNEAPOLIS    SUNNY     22   9  57 NW6       30.17R WCI  14
$$

  *****  WEATHER ACROSS SOUTH DAKOTA  *****

CITY           SKY/WX    TMP DP  RH WIND       PRES   REMARKS
SIOUX FALLS    SUNNY     25  16  68 SE7       30.15F WCI  17
BROOKINGS      NOT AVBL
WATERTOWN      SUNNY     21  15  78 SE7       30.10F WCI  12
HURON          SUNNY     24  17  74 S10       30.12F WCI  14
SISSETON         N/A     20   9  62 SE3       30.16F
ABERDEEN       SUNNY     22  16  78 SE12      30.11F WCI  10
MITCHELL       SUNNY     25  20  81 S15       30.13F WCI  13
PIERRE         SUNNY     26  20  77 SE20      29.96F WCI  12
MOBRIDGE       PTSUNNY   26  15  63 SE20      29.95F WCI  12
RAPID CITY     MOSUNNY   27  19  72 CALM      29.78F
$$

  *****  SOME WEATHER IN NEARBY STATES *****

CITY           SKY/WX    TMP DP  RH WIND       PRES   REMARKS
GLASGOW MT     MOSUNNY   31  14  49 E15       29.64F WCI  20
GREAT FALLS MT CLOUDY    48  23  37 SW20      29.68F
CHEYENNE WY    MOSUNNY   39  17  41 W23       29.92F
SCOTTSBLUFF NE SUNNY     34  24  67 CALM      29.91F
OMAHA NE       SUNNY     32  22  66 CALM      30.20F
DES MOINES IA  SUNNY     31  17  56 N7        30.21S WCI  24
DAVENPORT IA   SUNNY     30  21  69 NW14      30.15R WCI  19
CHICAGO IL     MOSUNNY   29  14  53 N10       30.09R WCI  20
EAU CLAIRE WI  MOSUNNY   25  13  60 NW5       30.12R WCI  19
LA CROSSE WI   SUNNY     28  15  58 NW8       30.14R WCI  20
$$

  *****  SOME NATIONAL WEATHER *****

CITY           SKY/WX    TMP DP  RH WIND       PRES   REMARKS
LA GUARDIA NY  LGT RAIN  59  55  88 S20G29    29.67F
RALEIGH NC     CLOUDY    67  62  84 S8        29.70F
ATLANTA GA     CLOUDY    50  48  93 NW21G28   29.79R
NEW ORLEANS LA CLOUDY    47  40  76 N20G30    30.11R
OKLAHOMA CITY  SUNNY     44  21  40 W5        30.26R
ALBUQUERQUE NM SUNNY     40  14  34 SE3       30.22S
SALT LAKE CITY CLOUDY    44  23  43 SE12      30.03F
LOS ANGELES CA MOCLDY    57  54  88 SW3       29.97S FOG
BOISE ID       CLOUDY    43  28  55 W6        29.93R
SEATTLE WA     PTCLDY    46  31  55 SE7       30.18R
$$

*** WEATHER ACROSS MANITOBA...SASKATCHEWAN AND ONTARIO ***
                ***ONTARIO***

CITY           SKY/WX    TMP DP  RH WIND       PRES   REMARKS
GERALDTON      MOSUNNY   10  -4  52 NW5       30.00F WCI   2
THUNDER BAY    MOSUNNY   19   5  53 W2        30.08S
SIOUX LOOKOUT  SUNNY      7  -4  61 N2        30.08F
TORONTO        LGT SNOW  28  25  86 W16       29.75R WCI  17
BIG TROUT LK   SUNNY      1  -6  71 NW8       30.02S WCI -12
PICKLE LAKE    MOSUNNY    7  -8  51 W8        30.02F WCI  -6
DRYDEN         SUNNY      9  -6  52 CALM      30.09R
KENORA         MOSUNNY    7  -6  56 CALM      30.11S
$$
                *** MANITOBA***

CITY           SKY/WX    TMP DP  RH WIND       PRES   REMARKS
BRANDON        CLOUDY    16  10  79 SE7       30.05F WCI   6
DAUPHIN        SUNNY     19   9  63 SE7       30.05F WCI  10
ISLAND LAKE    SUNNY      3  -8  60 NW6       30.10F WCI  -8
PILOT MOUND      N/A     19  12  73 S12         N/A  WCI   7
THE PAS        MOSUNNY   14  -8  37 SE7       30.09S WCI   4
THOMPSON       SUNNY      1  -9  60 NW8       30.16S WCI -12
WINNIPEG       MOSUNNY   16   5  62 S8        30.16F WCI   5
LYNN LAKE      SUNNY      0 -11  60 NE7       30.15S WCI -13
CHURCHILL      CRYSTALS  -6  -9  84 NW14      30.13R WCI -26
GILLAM         MOSUNNY   -4 -11  71 NW8       30.12S WCI -19
$$
                ***SASKATCHEWAN***

CITY           SKY/WX    TMP DP  RH WIND       PRES   REMARKS
ESTEVAN        CLOUDY    25  14  63 SE18      29.83F WCI  11
KINDERSLEY     PTSUNNY   30  21  69 E13       29.58F WCI  20
LLOYDMINSTER   CLOUDY    28  18  64 E15       29.70R WCI  17
PRINCE ALBERT  FLURRIES  21  16  79 E13       29.86F WCI   9
REGINA         CLOUDY    27  16  63 SE26G33   29.76F WCI  11
YORKTON        PTSUNNY   21  10  63 SE14G23   29.92F WCI   8



USA.gov is the U.S. government's official web portal to all federal, state and local government web resources and services.